SJX081 RCTP-KJFK

Flight info

Callsign SJX081
Flight time N/A
Altitude 33000
Route MOLKA1A MOLKA M750 IMPAL Y755 CARDS DCT HIOTI DCT CBE Y121 SWING Y88 DAIGO Y889 OATIS OTR3 PUTER/N0494F340 A590 PUGAL/N0489F350 A590 POWAL DCT OPAKE R580 ONEIL DCT ECOMI DCT ORVIL/N0489F370 R580 ORCCA DCT SQA DCT BGQ J124 GKN NCA14 GAHAM DCT 61N130W DCT YPE/N0477F390 DCT WAINN DCT DURUR DCT 49N100W DCT GFK DCT GRB DCT TWIGS DCT CHAAP DCT JHW Q476 WLKES PUCKY1
Aircraft A359/H-SDE2E3GHIJ3J4J5LM1ORWXY/LB1D1

Departure

Time N/A
Airport Taiwan Taoyuan International Airport (RCTP)

Arrival

Time 2026-05-09 04:51
Airport John F. Kennedy International Airport (KJFK)
Time Latitude Longitude Altitude Speed Heading
2026-05-09 00:54 56.81723 -118.78085 33009 ft 524 kts 133°
2026-05-09 00:55 56.76972 -118.67958 33031 ft 524 kts 133°
2026-05-09 00:55 56.72209 -118.57850 33040 ft 525 kts 133°
2026-05-09 00:56 56.67480 -118.47855 33039 ft 524 kts 133°
2026-05-09 00:56 56.62699 -118.37797 33046 ft 526 kts 133°
2026-05-09 00:57 56.57882 -118.27702 33046 ft 528 kts 133°
2026-05-09 00:57 56.53057 -118.17634 33051 ft 529 kts 133°
2026-05-09 00:58 56.48245 -118.07635 33063 ft 528 kts 133°
2026-05-09 00:58 56.43408 -117.97626 33062 ft 528 kts 133°
2026-05-09 00:59 56.38547 -117.87612 33063 ft 529 kts 133°
2026-05-09 00:59 56.33704 -117.77675 33064 ft 530 kts 133°
2026-05-09 01:00 56.28822 -117.67701 33070 ft 530 kts 133°
2026-05-09 01:00 56.23956 -117.57798 33027 ft 530 kts 133°
2026-05-09 01:01 56.19079 -117.47831 33025 ft 531 kts 131°
2026-05-09 01:01 56.14622 -117.37235 33026 ft 532 kts 127°
2026-05-09 01:02 56.10328 -117.26481 33036 ft 532 kts 127°
2026-05-09 01:02 56.05947 -117.15772 33053 ft 532 kts 128°
2026-05-09 01:03 56.01530 -117.05222 33054 ft 532 kts 128°
2026-05-09 01:03 55.97053 -116.94631 33047 ft 535 kts 128°
2026-05-09 01:04 55.92552 -116.84029 33048 ft 536 kts 128°
2026-05-09 01:04 55.88040 -116.73433 33048 ft 536 kts 128°
2026-05-09 01:05 55.83553 -116.62941 33046 ft 536 kts 128°
2026-05-09 01:06 55.76754 -116.47127 33044 ft 536 kts 128°
2026-05-09 01:06 55.72985 -116.38403 33045 ft 536 kts 128°
2026-05-09 01:07 55.67692 -116.26207 33042 ft 536 kts 129°
2026-05-09 01:07 55.63129 -116.15742 33039 ft 536 kts 129°
2026-05-09 01:08 55.59328 -116.07057 33051 ft 537 kts 129°
2026-05-09 01:08 55.54743 -115.96624 33046 ft 537 kts 129°
2026-05-09 01:09 55.50145 -115.86205 33055 ft 537 kts 129°
2026-05-09 01:09 55.45546 -115.75828 33038 ft 540 kts 129°
2026-05-09 01:10 55.40901 -115.65390 33050 ft 541 kts 129°
2026-05-09 01:10 55.36274 -115.55036 33049 ft 541 kts 129°
2026-05-09 01:11 55.31598 -115.44618 33047 ft 541 kts 129°
2026-05-09 01:11 55.26954 -115.34314 33047 ft 541 kts 129°
2026-05-09 01:12 55.22269 -115.23965 33026 ft 541 kts 129°
2026-05-09 01:12 55.17563 -115.13612 33019 ft 541 kts 129°
2026-05-09 01:13 55.12884 -115.03364 33016 ft 541 kts 129°
2026-05-09 01:13 55.08166 -114.93072 33016 ft 541 kts 129°
2026-05-09 01:14 55.03479 -114.82890 33019 ft 541 kts 129°
2026-05-09 01:14 54.98747 -114.72654 33024 ft 542 kts 129°
2026-05-09 01:15 54.93981 -114.62385 33015 ft 545 kts 129°
2026-05-09 01:15 54.89233 -114.52199 33018 ft 545 kts 129°
2026-05-09 01:16 54.84432 -114.41941 33013 ft 546 kts 130°
2026-05-09 01:16 54.79662 -114.31793 33008 ft 546 kts 130°
2026-05-09 01:17 54.72436 -114.16499 33004 ft 546 kts 130°
2026-05-09 01:17 54.67614 -114.06345 33001 ft 546 kts 130°
2026-05-09 01:18 54.62803 -113.96258 33009 ft 547 kts 130°
2026-05-09 01:18 54.60379 -113.91191 33284 ft 546 kts 130°
2026-05-09 01:18 54.57963 -113.86151 33744 ft 543 kts 130°
2026-05-09 01:19 54.55555 -113.81136 34116 ft 542 kts 130°
2026-05-09 01:19 54.53146 -113.76132 34424 ft 541 kts 130°
2026-05-09 01:19 54.50741 -113.71144 34733 ft 541 kts 130°
2026-05-09 01:19 54.48359 -113.66214 34962 ft 542 kts 130°
2026-05-09 01:20 54.43486 -113.56162 35266 ft 546 kts 130°
2026-05-09 01:20 54.41081 -113.51216 35581 ft 544 kts 130°
2026-05-09 01:20 54.38653 -113.46232 35894 ft 543 kts 130°
2026-05-09 01:21 54.36223 -113.41254 36157 ft 543 kts 130°
2026-05-09 01:21 54.33795 -113.36291 36386 ft 542 kts 130°
2026-05-09 01:21 54.31364 -113.31331 36636 ft 542 kts 130°
2026-05-09 01:21 54.28928 -113.26372 36869 ft 542 kts 130°
2026-05-09 01:22 54.26530 -113.21499 37030 ft 542 kts 130°
2026-05-09 01:22 54.24085 -113.16541 37243 ft 542 kts 130°
2026-05-09 01:22 54.21653 -113.11620 37462 ft 542 kts 130°
2026-05-09 01:22 54.19216 -113.06697 37701 ft 541 kts 130°
2026-05-09 01:23 54.16785 -113.01797 37904 ft 540 kts 130°
2026-05-09 01:23 54.14351 -112.96900 38118 ft 540 kts 130°
2026-05-09 01:23 54.11951 -112.92082 38302 ft 539 kts 130°
2026-05-09 01:23 54.09492 -112.87154 38472 ft 539 kts 131°
2026-05-09 01:24 54.07089 -112.82349 38700 ft 537 kts 131°
2026-05-09 01:24 54.04661 -112.77503 38865 ft 536 kts 131°
2026-05-09 01:24 54.02239 -112.72678 38967 ft 537 kts 131°
2026-05-09 01:24 53.99800 -112.67830 38981 ft 539 kts 131°
2026-05-09 01:25 53.94910 -112.58140 38981 ft 541 kts 130°
2026-05-09 01:25 53.90015 -112.48474 38987 ft 544 kts 131°
2026-05-09 01:26 53.85070 -112.38748 38977 ft 544 kts 131°
2026-05-09 01:26 53.80117 -112.29046 38978 ft 543 kts 131°
2026-05-09 01:27 53.75190 -112.19433 38976 ft 543 kts 131°
2026-05-09 01:27 53.70223 -112.09778 38970 ft 543 kts 131°
2026-05-09 01:28 53.65259 -112.00168 38974 ft 543 kts 131°
2026-05-09 01:28 53.60310 -111.90624 38969 ft 543 kts 131°
2026-05-09 01:29 53.55325 -111.81049 38969 ft 543 kts 131°
2026-05-09 01:29 53.50328 -111.71487 38965 ft 543 kts 131°
2026-05-09 01:30 53.45351 -111.62001 38975 ft 544 kts 131°
2026-05-09 01:30 53.40379 -111.52561 38965 ft 547 kts 131°
2026-05-09 01:31 53.35536 -111.43398 38961 ft 547 kts 131°
2026-05-09 01:31 53.30470 -111.33851 38962 ft 547 kts 131°
2026-05-09 01:32 53.25424 -111.24379 38956 ft 548 kts 132°
2026-05-09 01:32 53.20336 -111.14864 38958 ft 549 kts 132°
2026-05-09 01:33 53.15237 -111.05367 38959 ft 548 kts 132°
2026-05-09 01:33 53.10164 -110.95954 38958 ft 549 kts 132°
2026-05-09 01:34 53.05059 -110.86488 38946 ft 549 kts 131°
2026-05-09 01:34 53.00992 -110.76724 38953 ft 548 kts 120°
2026-05-09 01:35 52.97071 -110.65855 38971 ft 548 kts 118°
2026-05-09 01:35 52.93218 -110.54949 38952 ft 551 kts 118°
2026-05-09 01:36 52.89314 -110.43975 38951 ft 552 kts 119°
2026-05-09 01:36 52.85393 -110.33059 38944 ft 552 kts 119°
2026-05-09 01:37 52.81469 -110.22202 38944 ft 552 kts 119°
2026-05-09 01:37 52.77516 -110.11312 38929 ft 552 kts 119°
2026-05-09 01:38 52.73554 -110.00441 38940 ft 552 kts 120°
2026-05-09 01:38 52.69585 -109.89599 38938 ft 552 kts 120°
2026-05-09 01:39 52.65624 -109.78825 38942 ft 552 kts 120°
2026-05-09 01:39 52.61637 -109.68025 38942 ft 552 kts 120°
2026-05-09 01:40 52.57626 -109.57208 38932 ft 552 kts 120°
2026-05-09 01:40 52.53639 -109.46502 38941 ft 553 kts 120°
2026-05-09 01:41 52.49609 -109.35724 38937 ft 553 kts 120°
2026-05-09 01:41 52.45572 -109.24979 38935 ft 553 kts 120°
2026-05-09 01:42 52.41512 -109.14210 38940 ft 554 kts 120°
2026-05-09 01:42 52.37456 -109.03499 38933 ft 556 kts 120°
2026-05-09 01:43 52.33385 -108.92796 38938 ft 556 kts 120°
2026-05-09 01:43 52.29279 -108.82048 38936 ft 556 kts 120°
2026-05-09 01:44 52.25157 -108.71301 38935 ft 556 kts 120°
2026-05-09 01:44 52.21061 -108.60667 38935 ft 557 kts 120°
2026-05-09 01:45 52.16913 -108.49943 38951 ft 558 kts 120°
2026-05-09 01:45 52.12783 -108.39312 38937 ft 559 kts 120°
2026-05-09 01:46 52.08608 -108.28609 38928 ft 559 kts 120°
2026-05-09 01:46 52.04425 -108.17931 38928 ft 559 kts 121°
2026-05-09 01:47 52.00263 -108.07349 38927 ft 559 kts 121°
2026-05-09 01:47 51.96054 -107.96694 38922 ft 559 kts 121°
2026-05-09 01:48 51.91865 -107.86129 38925 ft 559 kts 121°
2026-05-09 01:48 51.87639 -107.75518 38924 ft 559 kts 121°
2026-05-09 01:49 51.83434 -107.65004 38924 ft 560 kts 121°
2026-05-09 01:49 51.79177 -107.54404 38924 ft 560 kts 121°
2026-05-09 01:50 51.74945 -107.43908 38919 ft 560 kts 121°
2026-05-09 01:50 51.70675 -107.33359 38911 ft 560 kts 121°
2026-05-09 01:51 51.66420 -107.22893 38923 ft 560 kts 121°
2026-05-09 01:51 51.62129 -107.12380 38958 ft 561 kts 121°
2026-05-09 01:52 51.57825 -107.01878 38918 ft 561 kts 121°
2026-05-09 01:52 51.53550 -106.91491 38915 ft 561 kts 121°
2026-05-09 01:53 51.49219 -106.81009 38922 ft 561 kts 121°
2026-05-09 01:53 51.44910 -106.70620 38914 ft 561 kts 121°
2026-05-09 01:54 51.40572 -106.60204 38922 ft 561 kts 122°
2026-05-09 01:54 51.36962 -106.51570 38914 ft 561 kts 122°
2026-05-09 01:55 51.32606 -106.41187 38923 ft 562 kts 122°
2026-05-09 01:55 51.27522 -106.29122 38913 ft 563 kts 122°
2026-05-09 01:56 51.23843 -106.20429 38914 ft 563 kts 122°
2026-05-09 01:56 51.19480 -106.10153 38916 ft 563 kts 122°
2026-05-09 01:57 51.15072 -105.99815 38912 ft 562 kts 122°
2026-05-09 01:57 51.10683 -105.89562 38914 ft 562 kts 122°
2026-05-09 01:58 51.06253 -105.79252 38960 ft 562 kts 122°
2026-05-09 01:58 51.01855 -105.69056 38913 ft 562 kts 122°
2026-05-09 01:59 50.97422 -105.58821 38914 ft 562 kts 122°
2026-05-09 01:59 50.92968 -105.48577 38916 ft 564 kts 122°
2026-05-09 02:00 50.88504 -105.38350 38929 ft 564 kts 122°
2026-05-09 02:00 50.84053 -105.28194 38929 ft 564 kts 123°
2026-05-09 02:01 50.79561 -105.17985 38931 ft 564 kts 122°
2026-05-09 02:01 50.75059 -105.07789 38928 ft 565 kts 122°
2026-05-09 02:02 50.70578 -104.97685 38930 ft 564 kts 123°
2026-05-09 02:02 50.66300 -104.87329 38930 ft 561 kts 114°
2026-05-09 02:03 50.62751 -104.76383 38916 ft 560 kts 112°
2026-05-09 02:03 50.59353 -104.65420 38867 ft 560 kts 112°
2026-05-09 02:04 50.55935 -104.54383 38905 ft 560 kts 112°
2026-05-09 02:04 50.52493 -104.43375 38868 ft 560 kts 112°
2026-05-09 02:05 50.49053 -104.32461 38878 ft 560 kts 112°
2026-05-09 02:05 50.45575 -104.21482 38887 ft 560 kts 112°
2026-05-09 02:06 50.42112 -104.10599 38904 ft 560 kts 112°
2026-05-09 02:07 50.36868 -103.94204 38922 ft 560 kts 113°
2026-05-09 02:07 50.33359 -103.83294 38903 ft 559 kts 113°
2026-05-09 02:08 50.29866 -103.72481 38898 ft 559 kts 113°
2026-05-09 02:08 50.26338 -103.61602 38898 ft 559 kts 113°
2026-05-09 02:09 50.22822 -103.50811 38895 ft 559 kts 113°
2026-05-09 02:09 50.19275 -103.39972 38892 ft 559 kts 113°
2026-05-09 02:10 50.15745 -103.29231 38889 ft 560 kts 114°
2026-05-09 02:10 50.12171 -103.18403 38877 ft 560 kts 114°
2026-05-09 02:11 50.08596 -103.07617 38883 ft 559 kts 114°
2026-05-09 02:11 50.05036 -102.96925 38884 ft 559 kts 114°
2026-05-09 02:12 50.01448 -102.86192 38888 ft 559 kts 114°
2026-05-09 02:12 49.97848 -102.75470 38882 ft 559 kts 114°
2026-05-09 02:13 49.94261 -102.64832 38868 ft 558 kts 114°
2026-05-09 02:13 49.90649 -102.54164 38875 ft 558 kts 114°
2026-05-09 02:14 49.87030 -102.43518 38875 ft 558 kts 114°
2026-05-09 02:14 49.83401 -102.32891 38863 ft 558 kts 114°
2026-05-09 02:15 49.79756 -102.22261 38865 ft 557 kts 115°
2026-05-09 02:15 49.76130 -102.11727 38847 ft 558 kts 115°
2026-05-09 02:16 49.72465 -102.01125 38851 ft 558 kts 115°
2026-05-09 02:16 49.68788 -101.90533 38852 ft 559 kts 115°
2026-05-09 02:17 49.65133 -101.80047 38849 ft 559 kts 115°
2026-05-09 02:17 49.61459 -101.69552 38853 ft 557 kts 115°
2026-05-09 02:18 49.57761 -101.59031 38843 ft 557 kts 115°
2026-05-09 02:18 49.54075 -101.48584 38844 ft 557 kts 115°
2026-05-09 02:19 49.50360 -101.38098 38846 ft 557 kts 115°
2026-05-09 02:19 49.46636 -101.27633 38842 ft 557 kts 115°
2026-05-09 02:20 49.42905 -101.17186 38846 ft 557 kts 116°
2026-05-09 02:20 49.39188 -101.06824 38838 ft 557 kts 116°
2026-05-09 02:21 49.35436 -100.96404 38841 ft 557 kts 116°
2026-05-09 02:21 49.31696 -100.86058 38836 ft 557 kts 116°
2026-05-09 02:22 49.27926 -100.75672 38836 ft 557 kts 116°
2026-05-09 02:22 49.24166 -100.65355 38828 ft 556 kts 116°
2026-05-09 02:23 49.20374 -100.54992 38835 ft 556 kts 116°
2026-05-09 02:23 49.16600 -100.44717 38828 ft 556 kts 116°
2026-05-09 02:24 49.12797 -100.34403 38828 ft 556 kts 116°
2026-05-09 02:24 49.08979 -100.24093 38826 ft 556 kts 117°
2026-05-09 02:25 49.05176 -100.13862 38837 ft 556 kts 116°
2026-05-09 02:25 49.01343 -100.03592 38821 ft 555 kts 117°
2026-05-09 02:26 48.97581 -99.93401 38820 ft 554 kts 115°
2026-05-09 02:26 48.93943 -99.83027 38818 ft 554 kts 115°
2026-05-09 02:27 48.90338 -99.72724 38817 ft 554 kts 115°
2026-05-09 02:27 48.86683 -99.62406 38822 ft 554 kts 115°
2026-05-09 02:28 48.83007 -99.52121 38810 ft 553 kts 115°
2026-05-09 02:28 48.79346 -99.41930 38804 ft 553 kts 115°
2026-05-09 02:29 48.75649 -99.31676 38805 ft 553 kts 115°
2026-05-09 02:29 48.71966 -99.21496 38805 ft 553 kts 116°
2026-05-09 02:30 48.68253 -99.11273 38809 ft 553 kts 116°
2026-05-09 02:30 48.64547 -99.01108 38801 ft 553 kts 116°
2026-05-09 02:31 48.60811 -98.90903 38801 ft 553 kts 116°
2026-05-09 02:31 48.57073 -98.80732 38787 ft 553 kts 116°
2026-05-09 02:32 48.53326 -98.70574 38788 ft 553 kts 116°
2026-05-09 02:32 48.49595 -98.60499 38793 ft 552 kts 116°
2026-05-09 02:33 48.45855 -98.50443 38788 ft 549 kts 117°
2026-05-09 02:33 48.42103 -98.40387 38787 ft 548 kts 117°
2026-05-09 02:34 48.38374 -98.30432 38788 ft 549 kts 117°
2026-05-09 02:34 48.34613 -98.20428 38766 ft 548 kts 117°
2026-05-09 02:35 48.30839 -98.10428 38777 ft 549 kts 117°
2026-05-09 02:35 48.27083 -98.00514 38763 ft 549 kts 117°
2026-05-09 02:36 48.23312 -97.90598 38763 ft 549 kts 117°
2026-05-09 02:36 48.19519 -97.80661 38746 ft 549 kts 117°
2026-05-09 02:37 48.15708 -97.70714 38743 ft 549 kts 118°
2026-05-09 02:37 48.11922 -97.60870 38732 ft 547 kts 118°
2026-05-09 02:38 48.08111 -97.50997 38733 ft 547 kts 118°
2026-05-09 02:38 48.04295 -97.41145 38720 ft 547 kts 118°
2026-05-09 02:39 48.00468 -97.31303 38720 ft 547 kts 118°
2026-05-09 02:39 47.96657 -97.21536 38740 ft 547 kts 118°
2026-05-09 02:40 47.92984 -97.11611 38711 ft 546 kts 114°
2026-05-09 02:40 47.89805 -97.01335 38708 ft 545 kts 112°
2026-05-09 02:41 47.87195 -96.92776 38705 ft 545 kts 112°
2026-05-09 02:41 47.83445 -96.80882 38685 ft 545 kts 113°
2026-05-09 02:42 47.80159 -96.70696 38693 ft 546 kts 114°
2026-05-09 02:42 47.77406 -96.62220 38697 ft 547 kts 114°
2026-05-09 02:43 47.73542 -96.50360 38700 ft 548 kts 114°
2026-05-09 02:43 47.70212 -96.40177 38698 ft 548 kts 114°
2026-05-09 02:44 47.67431 -96.31699 38699 ft 548 kts 114°
2026-05-09 02:44 47.64080 -96.21519 38709 ft 548 kts 114°
2026-05-09 02:45 47.60738 -96.11408 38707 ft 548 kts 114°
2026-05-09 02:45 47.57366 -96.01247 38712 ft 548 kts 114°
2026-05-09 02:46 47.53993 -95.91121 38707 ft 548 kts 115°
2026-05-09 02:46 47.50605 -95.80992 38720 ft 548 kts 115°
2026-05-09 02:47 47.47235 -95.70957 38708 ft 546 kts 115°
2026-05-09 02:47 47.43841 -95.60890 38710 ft 546 kts 115°
2026-05-09 02:48 47.40442 -95.50843 38715 ft 547 kts 115°
2026-05-09 02:48 47.37031 -95.40803 38723 ft 547 kts 115°
2026-05-09 02:49 47.33642 -95.30863 38724 ft 545 kts 115°
2026-05-09 02:49 47.30220 -95.20871 38722 ft 544 kts 115°
2026-05-09 02:50 47.26801 -95.10918 38699 ft 544 kts 115°
2026-05-09 02:50 47.23390 -95.01028 38723 ft 545 kts 116°
2026-05-09 02:51 47.19943 -94.91074 38724 ft 545 kts 116°
2026-05-09 02:51 47.16496 -94.81156 38729 ft 544 kts 116°
2026-05-09 02:52 47.13063 -94.71315 38728 ft 544 kts 116°
2026-05-09 02:52 47.09597 -94.61418 38717 ft 544 kts 116°
2026-05-09 02:53 47.06137 -94.51574 38735 ft 544 kts 116°
2026-05-09 02:53 47.02653 -94.41699 38697 ft 545 kts 116°
2026-05-09 02:54 46.99181 -94.31896 38692 ft 545 kts 117°
2026-05-09 02:54 46.95675 -94.22030 38693 ft 545 kts 117°
2026-05-09 02:55 46.92179 -94.12233 38693 ft 545 kts 117°
2026-05-09 02:55 46.88660 -94.02407 38694 ft 545 kts 117°
2026-05-09 02:56 46.85126 -93.92573 38704 ft 547 kts 117°
2026-05-09 02:56 46.81571 -93.82719 38710 ft 547 kts 117°
2026-05-09 02:57 46.78028 -93.72935 38708 ft 547 kts 117°
2026-05-09 02:57 46.74480 -93.63173 38705 ft 547 kts 117°
2026-05-09 02:58 46.70901 -93.53360 38704 ft 547 kts 117°
2026-05-09 02:58 46.67318 -93.43574 38702 ft 547 kts 117°
2026-05-09 02:59 46.63729 -93.33804 38701 ft 547 kts 118°
2026-05-09 02:59 46.60145 -93.24087 38702 ft 547 kts 118°
2026-05-09 03:00 46.56539 -93.14344 38699 ft 545 kts 118°
2026-05-09 03:00 46.52960 -93.04709 38699 ft 543 kts 118°
2026-05-09 03:01 46.49349 -92.95022 38696 ft 544 kts 118°
2026-05-09 03:01 46.45732 -92.85355 38683 ft 545 kts 118°
2026-05-09 03:02 46.42109 -92.75706 38695 ft 544 kts 118°
2026-05-09 03:02 46.38505 -92.66140 38672 ft 543 kts 118°
2026-05-09 03:03 46.34865 -92.56515 38667 ft 543 kts 118°
2026-05-09 03:03 46.31241 -92.46964 38660 ft 544 kts 118°
2026-05-09 03:04 46.27590 -92.37377 38671 ft 544 kts 118°
2026-05-09 03:04 46.23954 -92.27860 38661 ft 543 kts 119°
2026-05-09 03:05 46.20276 -92.18271 38666 ft 543 kts 119°
2026-05-09 03:05 46.16625 -92.08783 38664 ft 543 kts 119°
2026-05-09 03:06 46.12940 -91.99242 38663 ft 543 kts 119°
2026-05-09 03:06 46.09274 -91.89782 38666 ft 543 kts 119°
2026-05-09 03:07 46.05579 -91.80280 38657 ft 543 kts 119°
2026-05-09 03:07 46.01871 -91.70776 38652 ft 543 kts 119°
2026-05-09 03:08 45.98183 -91.61357 38648 ft 543 kts 120°
2026-05-09 03:08 45.94464 -91.51892 38642 ft 542 kts 120°
2026-05-09 03:09 45.90764 -91.42509 38649 ft 543 kts 120°
2026-05-09 03:09 45.87030 -91.33070 38651 ft 543 kts 120°
2026-05-09 03:10 45.83284 -91.23635 38657 ft 543 kts 120°
2026-05-09 03:10 45.79561 -91.14288 38665 ft 543 kts 120°
2026-05-09 03:11 45.75806 -91.04892 38649 ft 542 kts 120°
2026-05-09 03:11 45.72064 -90.95561 38661 ft 541 kts 120°
2026-05-09 03:12 45.68297 -90.86199 38661 ft 541 kts 120°
2026-05-09 03:12 45.64550 -90.76919 38677 ft 541 kts 121°
2026-05-09 03:13 45.58891 -90.62961 38667 ft 539 kts 121°
2026-05-09 03:13 45.55137 -90.53742 38666 ft 539 kts 121°
2026-05-09 03:14 45.51364 -90.44504 38672 ft 538 kts 121°
2026-05-09 03:14 45.47597 -90.35312 38678 ft 538 kts 121°
2026-05-09 03:15 45.43805 -90.26091 38674 ft 538 kts 121°
2026-05-09 03:15 45.40030 -90.16939 38674 ft 538 kts 121°
2026-05-09 03:16 45.36223 -90.07742 38673 ft 538 kts 122°
2026-05-09 03:16 45.32429 -89.98605 38691 ft 538 kts 122°
2026-05-09 03:17 45.28611 -89.89439 38683 ft 537 kts 122°
2026-05-09 03:17 45.24797 -89.80315 38683 ft 536 kts 122°
2026-05-09 03:18 45.20996 -89.71250 38684 ft 536 kts 122°
2026-05-09 03:18 45.17167 -89.62149 38687 ft 537 kts 122°
2026-05-09 03:19 45.13358 -89.53125 38681 ft 537 kts 122°
2026-05-09 03:19 45.09509 -89.44034 38680 ft 537 kts 122°
2026-05-09 03:20 45.05658 -89.34965 38684 ft 537 kts 122°
2026-05-09 03:20 45.01827 -89.25977 38700 ft 537 kts 122°
2026-05-09 03:21 44.97959 -89.16926 38690 ft 537 kts 123°
2026-05-09 03:21 44.94085 -89.07893 38693 ft 537 kts 123°
2026-05-09 03:22 44.90232 -88.98938 38693 ft 537 kts 123°
2026-05-09 03:22 44.86342 -88.89923 38692 ft 537 kts 123°
2026-05-09 03:23 44.82445 -88.80923 38699 ft 537 kts 123°
2026-05-09 03:23 44.78534 -88.71918 38701 ft 537 kts 123°
2026-05-09 03:24 44.74645 -88.62991 38703 ft 537 kts 123°
2026-05-09 03:24 44.70726 -88.54023 38687 ft 537 kts 123°
2026-05-09 03:25 44.66795 -88.45057 38695 ft 538 kts 123°
2026-05-09 03:25 44.62894 -88.36189 38690 ft 537 kts 124°
2026-05-09 03:26 44.58959 -88.27268 38698 ft 536 kts 124°
2026-05-09 03:26 44.55273 -88.18172 38700 ft 538 kts 114°
2026-05-09 03:27 44.52405 -88.08455 38698 ft 539 kts 113°
2026-05-09 03:27 44.49713 -87.98732 38702 ft 539 kts 112°
2026-05-09 03:28 44.47009 -87.88934 38701 ft 539 kts 113°
2026-05-09 03:28 44.44281 -87.79154 38691 ft 539 kts 113°
2026-05-09 03:29 44.41537 -87.69399 38710 ft 539 kts 113°
2026-05-09 03:29 44.38774 -87.59629 38709 ft 540 kts 113°
2026-05-09 03:30 44.36011 -87.49895 38717 ft 542 kts 113°
2026-05-09 03:30 44.33216 -87.40083 38729 ft 543 kts 113°
2026-05-09 03:31 44.30427 -87.30330 38722 ft 543 kts 113°
2026-05-09 03:31 44.28084 -87.22167 38727 ft 545 kts 114°
2026-05-09 03:32 44.25252 -87.12335 38731 ft 546 kts 114°
2026-05-09 03:32 44.22432 -87.02583 38750 ft 545 kts 114°
2026-05-09 03:33 44.19582 -86.92767 38751 ft 545 kts 114°
2026-05-09 03:33 44.16739 -86.83013 38741 ft 547 kts 114°
2026-05-09 03:34 44.13864 -86.73187 38751 ft 547 kts 114°
2026-05-09 03:34 44.10983 -86.63377 38750 ft 547 kts 114°
2026-05-09 03:35 44.08093 -86.53574 38757 ft 547 kts 114°
2026-05-09 03:35 44.05210 -86.43836 38757 ft 547 kts 114°
2026-05-09 03:36 44.02301 -86.34046 38754 ft 547 kts 114°
2026-05-09 03:36 43.99401 -86.24324 38758 ft 547 kts 114°
2026-05-09 03:37 43.96475 -86.14552 38770 ft 547 kts 114°
2026-05-09 03:37 43.93541 -86.04791 38766 ft 548 kts 115°
2026-05-09 03:38 43.90590 -85.95012 38771 ft 548 kts 115°
2026-05-09 03:38 43.87644 -85.85285 38774 ft 548 kts 115°
2026-05-09 03:39 43.84698 -85.75596 38774 ft 548 kts 115°
2026-05-09 03:39 43.81716 -85.65825 38778 ft 548 kts 115°
2026-05-09 03:40 43.78735 -85.56094 38777 ft 548 kts 115°
2026-05-09 03:40 43.75764 -85.46430 38775 ft 548 kts 115°
2026-05-09 03:41 43.72772 -85.36734 38765 ft 548 kts 116°
2026-05-09 03:41 43.69787 -85.27097 38790 ft 547 kts 116°
2026-05-09 03:42 43.66781 -85.17433 38793 ft 547 kts 116°
2026-05-09 03:42 43.63785 -85.07833 38795 ft 547 kts 116°
2026-05-09 03:43 43.60762 -84.98182 38797 ft 546 kts 116°
2026-05-09 03:43 43.57732 -84.88543 38800 ft 546 kts 116°
2026-05-09 03:44 43.54699 -84.78933 38803 ft 546 kts 116°
2026-05-09 03:44 43.51677 -84.69393 38803 ft 546 kts 116°
2026-05-09 03:45 43.48626 -84.59794 38805 ft 547 kts 117°
2026-05-09 03:45 43.45560 -84.50183 38804 ft 548 kts 117°
2026-05-09 03:46 43.42502 -84.40631 38807 ft 548 kts 117°
2026-05-09 03:46 43.39417 -84.31032 38815 ft 548 kts 117°
2026-05-09 03:47 43.36321 -84.21430 38817 ft 548 kts 117°
2026-05-09 03:47 43.33239 -84.11910 38819 ft 549 kts 117°
2026-05-09 03:48 43.30151 -84.02401 38807 ft 549 kts 117°
2026-05-09 03:48 43.27247 -83.93492 38807 ft 549 kts 117°
2026-05-09 03:49 43.24137 -83.83985 38809 ft 549 kts 117°
2026-05-09 03:49 43.20994 -83.74408 38811 ft 549 kts 117°
2026-05-09 03:50 43.17864 -83.64908 38826 ft 549 kts 117°
2026-05-09 03:50 43.14710 -83.55366 38828 ft 549 kts 117°
2026-05-09 03:51 43.11548 -83.45835 38823 ft 549 kts 118°
2026-05-09 03:51 43.08395 -83.36364 38819 ft 550 kts 118°
2026-05-09 03:52 43.05215 -83.26846 38816 ft 550 kts 118°
2026-05-09 03:52 43.02020 -83.17317 38790 ft 550 kts 118°
2026-05-09 03:53 42.98837 -83.07858 38811 ft 552 kts 118°
2026-05-09 03:53 42.95614 -82.98310 38807 ft 553 kts 118°
2026-05-09 03:54 42.92397 -82.88815 38815 ft 553 kts 118°
2026-05-09 03:54 42.89170 -82.79322 38828 ft 553 kts 118°
2026-05-09 03:55 42.85920 -82.69797 38804 ft 553 kts 118°
2026-05-09 03:55 42.82661 -82.60278 38817 ft 553 kts 118°
2026-05-09 03:56 42.80214 -82.50358 38827 ft 558 kts 105°
2026-05-09 03:56 42.78516 -82.40015 38850 ft 559 kts 104°
2026-05-09 03:57 42.76932 -82.29605 38850 ft 560 kts 103°
2026-05-09 03:57 42.75345 -82.19264 38840 ft 561 kts 104°
2026-05-09 03:58 42.73713 -82.08851 38856 ft 562 kts 104°
2026-05-09 03:58 42.72068 -81.98486 38856 ft 562 kts 104°
2026-05-09 03:59 42.70404 -81.88073 38857 ft 562 kts 104°
2026-05-09 03:59 42.68734 -81.77681 38859 ft 562 kts 104°
2026-05-09 04:00 42.67063 -81.67343 38862 ft 562 kts 104°
2026-05-09 04:00 42.65372 -81.56940 38866 ft 563 kts 104°
2026-05-09 04:01 42.63670 -81.46538 38868 ft 564 kts 104°
2026-05-09 04:01 42.61968 -81.36194 38869 ft 564 kts 105°
2026-05-09 04:02 42.60248 -81.25803 38868 ft 564 kts 105°
2026-05-09 04:02 42.58510 -81.15372 38878 ft 564 kts 105°
2026-05-09 04:03 42.56781 -81.05055 38880 ft 565 kts 105°
2026-05-09 04:03 42.55027 -80.94652 38880 ft 565 kts 105°
2026-05-09 04:04 42.53266 -80.84266 38880 ft 565 kts 105°
2026-05-09 04:04 42.51503 -80.73928 38889 ft 565 kts 105°
2026-05-09 04:05 42.49701 -80.63555 38889 ft 565 kts 107°
2026-05-09 04:05 42.47685 -80.53273 38881 ft 564 kts 108°
2026-05-09 04:06 42.45597 -80.42984 38893 ft 566 kts 108°
2026-05-09 04:06 42.43543 -80.32762 38889 ft 566 kts 108°
2026-05-09 04:07 42.41488 -80.22454 38898 ft 566 kts 108°
2026-05-09 04:07 42.39429 -80.12150 38893 ft 566 kts 108°
2026-05-09 04:08 42.37370 -80.01904 38895 ft 567 kts 108°
2026-05-09 04:08 42.35286 -79.91596 38904 ft 567 kts 108°
2026-05-09 04:09 42.33202 -79.81339 38902 ft 567 kts 108°
2026-05-09 04:09 42.31098 -79.71034 38919 ft 568 kts 108°
2026-05-09 04:10 42.28982 -79.60727 38915 ft 568 kts 108°
2026-05-09 04:10 42.26871 -79.50495 38915 ft 568 kts 108°
2026-05-09 04:11 42.24742 -79.40222 38926 ft 568 kts 108°
2026-05-09 04:11 42.22597 -79.29929 38926 ft 570 kts 108°
2026-05-09 04:12 42.20441 -79.19630 38929 ft 570 kts 108°
2026-05-09 04:12 42.18277 -79.09392 38920 ft 570 kts 109°
2026-05-09 04:13 42.15807 -78.99250 38929 ft 569 kts 112°
2026-05-09 04:13 42.13186 -78.89154 38942 ft 570 kts 112°
2026-05-09 04:14 42.10595 -78.79057 38948 ft 570 kts 112°
2026-05-09 04:14 42.08047 -78.68993 38968 ft 570 kts 112°
2026-05-09 04:15 42.05486 -78.58874 38942 ft 571 kts 112°
2026-05-09 04:15 42.02912 -78.48750 38939 ft 571 kts 112°
2026-05-09 04:16 42.00341 -78.38689 38952 ft 573 kts 112°
2026-05-09 04:16 41.97735 -78.28536 38952 ft 573 kts 112°
2026-05-09 04:17 41.95122 -78.18398 38952 ft 573 kts 112°
2026-05-09 04:17 41.92513 -78.08319 38953 ft 573 kts 112°
2026-05-09 04:18 41.89886 -77.98213 38956 ft 573 kts 112°
2026-05-09 04:18 41.87242 -77.88082 38959 ft 573 kts 112°
2026-05-09 04:19 41.84615 -77.78058 38971 ft 573 kts 112°
2026-05-09 04:19 41.82406 -77.69665 38971 ft 573 kts 112°
2026-05-09 04:20 41.79746 -77.59602 38970 ft 573 kts 112°
2026-05-09 04:20 41.77069 -77.49517 38966 ft 572 kts 112°
2026-05-09 04:21 41.74411 -77.39538 38969 ft 572 kts 112°
2026-05-09 04:22 41.70386 -77.24493 38963 ft 572 kts 112°
2026-05-09 04:22 41.67702 -77.14515 38954 ft 573 kts 112°
2026-05-09 04:23 41.64983 -77.04445 38958 ft 574 kts 112°
2026-05-09 04:23 41.62256 -76.94400 38957 ft 575 kts 113°
2026-05-09 04:24 41.59517 -76.84352 38950 ft 575 kts 112°
2026-05-09 04:24 41.56789 -76.74381 38954 ft 575 kts 112°
2026-05-09 04:25 41.54032 -76.64341 38961 ft 575 kts 113°
2026-05-09 04:25 41.51264 -76.54310 38958 ft 575 kts 113°
2026-05-09 04:26 41.48494 -76.44297 38961 ft 575 kts 113°
2026-05-09 04:26 41.45727 -76.34333 38963 ft 574 kts 113°
2026-05-09 04:27 41.42953 -76.24385 38958 ft 574 kts 113°
2026-05-09 04:27 41.41557 -76.19392 38793 ft 573 kts 113°
2026-05-09 04:27 41.40168 -76.14431 38338 ft 567 kts 113°
2026-05-09 04:27 41.38787 -76.09512 37694 ft 566 kts 113°
2026-05-09 04:28 41.37423 -76.04665 37011 ft 565 kts 113°
2026-05-09 04:28 41.36041 -75.99762 36339 ft 565 kts 113°
2026-05-09 04:28 41.34655 -75.94855 35649 ft 565 kts 113°
2026-05-09 04:28 41.33268 -75.89952 34924 ft 567 kts 113°
2026-05-09 04:29 41.31869 -75.85020 34106 ft 569 kts 114°
2026-05-09 04:29 41.30464 -75.80074 33024 ft 575 kts 114°
2026-05-09 04:29 41.29035 -75.75061 31832 ft 583 kts 113°
2026-05-09 04:29 41.27590 -75.69995 30737 ft 589 kts 113°
2026-05-09 04:30 41.26078 -75.64899 29617 ft 594 kts 115°
2026-05-09 04:30 41.24411 -75.59948 28612 ft 591 kts 117°
2026-05-09 04:30 41.22727 -75.55053 27378 ft 577 kts 117°
2026-05-09 04:30 41.21081 -75.50234 26117 ft 567 kts 117°
2026-05-09 04:31 41.19481 -75.45517 25230 ft 551 kts 117°
2026-05-09 04:31 41.17940 -75.40953 24631 ft 529 kts 117°
2026-05-09 04:31 41.16461 -75.36570 24075 ft 509 kts 117°
2026-05-09 04:31 41.15050 -75.32393 23546 ft 499 kts 117°
2026-05-09 04:32 41.13606 -75.28141 23057 ft 510 kts 117°
2026-05-09 04:32 41.12143 -75.23823 22968 ft 514 kts 117°
2026-05-09 04:32 41.10675 -75.19488 22972 ft 516 kts 117°
2026-05-09 04:32 41.09231 -75.15223 22683 ft 505 kts 117°
2026-05-09 04:33 41.07790 -75.10975 21737 ft 508 kts 117°
2026-05-09 04:33 41.06331 -75.06692 20846 ft 509 kts 117°
2026-05-09 04:33 41.04884 -75.02443 20229 ft 503 kts 117°
2026-05-09 04:33 41.03451 -74.98236 19609 ft 498 kts 117°
2026-05-09 04:34 41.02031 -74.94073 18985 ft 492 kts 117°
2026-05-09 04:34 41.00631 -74.89975 18394 ft 485 kts 117°
2026-05-09 04:34 40.99492 -74.85795 17726 ft 483 kts 104°
2026-05-09 04:34 40.98891 -74.81442 17061 ft 477 kts 99°
2026-05-09 04:35 40.98403 -74.77121 16355 ft 472 kts 99°
2026-05-09 04:35 40.97928 -74.72889 15702 ft 467 kts 99°
2026-05-09 04:35 40.97446 -74.68664 15065 ft 462 kts 99°
2026-05-09 04:35 40.96963 -74.64492 14439 ft 456 kts 99°
2026-05-09 04:36 40.96479 -74.60354 13795 ft 452 kts 100°
2026-05-09 04:36 40.95998 -74.56273 13138 ft 445 kts 100°
2026-05-09 04:36 40.95520 -74.52244 12428 ft 441 kts 100°
2026-05-09 04:36 40.95046 -74.48256 11853 ft 433 kts 100°
2026-05-09 04:37 40.94579 -74.44348 11298 ft 426 kts 100°
2026-05-09 04:37 40.94126 -74.40550 11125 ft 409 kts 100°
2026-05-09 04:37 40.93691 -74.36919 11014 ft 391 kts 100°
2026-05-09 04:37 40.93271 -74.33425 10866 ft 376 kts 100°
2026-05-09 04:38 40.92871 -74.30113 10703 ft 363 kts 100°
2026-05-09 04:38 40.92479 -74.26873 10537 ft 350 kts 100°
2026-05-09 04:38 40.92099 -74.23745 10359 ft 339 kts 101°
2026-05-09 04:38 40.91726 -74.20682 10040 ft 335 kts 101°
2026-05-09 04:39 40.91357 -74.17655 9703 ft 332 kts 101°
2026-05-09 04:39 40.90986 -74.14630 9390 ft 333 kts 101°
2026-05-09 04:39 40.90478 -74.11659 9177 ft 327 kts 109°
2026-05-09 04:39 40.89477 -74.09061 8712 ft 316 kts 135°
2026-05-09 04:40 40.87846 -74.07253 8260 ft 299 kts 161°
2026-05-09 04:40 40.85934 -74.06380 7830 ft 286 kts 175°
2026-05-09 04:40 40.83997 -74.05840 7405 ft 282 kts 177°
2026-05-09 04:40 40.82082 -74.05349 7011 ft 279 kts 177°
2026-05-09 04:41 40.80174 -74.04875 6601 ft 278 kts 177°
2026-05-09 04:41 40.78917 -74.04569 6326 ft 277 kts 177°
2026-05-09 04:41 40.77333 -74.04190 6016 ft 275 kts 177°
2026-05-09 04:41 40.75459 -74.03750 5636 ft 273 kts 177°
2026-05-09 04:42 40.73591 -74.03326 5235 ft 271 kts 177°
2026-05-09 04:42 40.71732 -74.02922 4783 ft 271 kts 177°
2026-05-09 04:42 40.69864 -74.02606 4374 ft 267 kts 183°
2026-05-09 04:42 40.68029 -74.02584 3962 ft 263 kts 187°
2026-05-09 04:43 40.66204 -74.02657 3542 ft 261 kts 187°
2026-05-09 04:43 40.64414 -74.02757 3165 ft 258 kts 187°
2026-05-09 04:43 40.62619 -74.02880 3005 ft 258 kts 187°
2026-05-09 04:43 40.60826 -74.03011 2991 ft 258 kts 187°
2026-05-09 04:44 40.59032 -74.03146 3002 ft 258 kts 187°
2026-05-09 04:44 40.57235 -74.03281 2997 ft 258 kts 187°
2026-05-09 04:44 40.55442 -74.03412 2996 ft 258 kts 187°
2026-05-09 04:44 40.53636 -74.03466 2992 ft 262 kts 179°
2026-05-09 04:45 40.51896 -74.02686 3008 ft 268 kts 153°
2026-05-09 04:45 40.50326 -74.01330 2995 ft 271 kts 148°
2026-05-09 04:45 40.48957 -73.99666 3002 ft 277 kts 125°
2026-05-09 04:45 40.48401 -73.97271 2996 ft 273 kts 90°
2026-05-09 04:46 40.48916 -73.95007 2995 ft 251 kts 52°
2026-05-09 04:46 40.50209 -73.93716 3008 ft 226 kts 12°
2026-05-09 04:46 40.51698 -73.93721 3012 ft 215 kts 342°
2026-05-09 04:46 40.53206 -73.93898 2885 ft 220 kts 359°
2026-05-09 04:47 40.54726 -73.93593 2551 ft 223 kts 11°
2026-05-09 04:47 40.56194 -73.92948 2301 ft 219 kts 20°
2026-05-09 04:47 40.57520 -73.92156 2172 ft 199 kts 24°
2026-05-09 04:47 40.58696 -73.91358 1983 ft 183 kts 26°
2026-05-09 04:48 40.59787 -73.90568 1701 ft 175 kts 27°
2026-05-09 04:48 40.60811 -73.89795 1455 ft 165 kts 28°
2026-05-09 04:48 40.61773 -73.89073 1267 ft 154 kts 27°
2026-05-09 04:48 40.62671 -73.88395 1135 ft 146 kts 28°
2026-05-09 04:49 40.63552 -73.87723 1011 ft 147 kts 28°
2026-05-09 04:49 40.64399 -73.86965 888 ft 147 kts 40°
2026-05-09 04:49 40.65083 -73.85986 747 ft 144 kts 56°
2026-05-09 04:49 40.65540 -73.84831 634 ft 141 kts 72°
2026-05-09 04:50 40.65635 -73.83582 488 ft 138 kts 100°
2026-05-09 04:50 40.65218 -73.82475 311 ft 134 kts 124°
2026-05-09 04:50 40.64724 -73.81426 145 ft 134 kts 118°
2026-05-09 04:50 40.64250 -73.80381 29 ft 128 kts 121°
2026-05-09 04:51 40.63900 -73.79605 27 ft 59 kts 121°
2026-05-09 04:51 40.63734 -73.79239 27 ft 45 kts 121°
2026-05-09 04:51 40.63605 -73.78948 29 ft 31 kts 112°
2026-05-09 04:51 40.63575 -73.78695 29 ft 16 kts 87°
2026-05-09 04:52 40.63597 -73.78550 28 ft 17 kts 61°
2026-05-09 04:52 40.63576 -73.78408 27 ft 17 kts 117°
2026-05-09 04:52 40.63511 -73.78265 27 ft 19 kts 121°
2026-05-09 04:52 40.63439 -73.78104 27 ft 21 kts 120°
2026-05-09 04:53 40.63420 -73.77919 27 ft 22 kts 62°
2026-05-09 04:53 40.63533 -73.77824 27 ft 14 kts 352°
2026-05-09 04:53 40.63622 -73.77884 27 ft 16 kts 343°
2026-05-09 04:53 40.63737 -73.77908 27 ft 18 kts 352°
2026-05-09 04:54 40.63868 -73.77930 27 ft 20 kts 353°
2026-05-09 04:54 40.63999 -73.77948 27 ft 15 kts
2026-05-09 04:54 40.64084 -73.77862 27 ft 17 kts 59°
2026-05-09 04:54 40.64145 -73.77720 27 ft 19 kts 60°
2026-05-09 04:55 40.64204 -73.77603 27 ft 6 kts 25°
2026-05-09 04:55 40.64221 -73.77621 27 ft 3 kts 298°
2026-05-09 04:55 40.64228 -73.77660 27 ft 6 kts 283°
2026-05-09 04:55 40.64240 -73.77720 27 ft 0 kts 285°
2026-05-09 04:56 40.64241 -73.77722 27 ft 0 kts 285°